This is the latest recevied weather packets stored in our database for station/object AE5HO. If no packets are shown the sender has not sent any weather packets the latest 10 day(s).
| Time | Temp. | Humidity | Pressure | Rain* | Wind** | Luminosity | Snow |
|---|---|---|---|---|---|---|---|
| 1788126566 | 38.33° C | 34% | 1013.3 hPa | 0 mm | - | 42 W/m² | - |
| 1788126263 | 38.33° C | 35% | 1013.5 hPa | 0 mm | - | 44 W/m² | - |
| 1788125962 | 37.78° C | 34% | 1013.5 hPa | 0 mm | - | 49 W/m² | - |
| 1788125658 | 38.33° C | 35% | 1013.5 hPa | 0 mm | - | 43 W/m² | - |
| 1788125353 | 38.33° C | 34% | 1013.5 hPa | 0 mm | - | 48 W/m² | - |
| 1788125049 | 38.33° C | 35% | 1013.7 hPa | 0 mm | - | 59 W/m² | - |
| 1788124749 | 38.33° C | 34% | 1013.9 hPa | 0 mm | - | 45 W/m² | - |
| 1788124448 | 38.33° C | 33% | 1014 hPa | 0 mm | - | 49 W/m² | - |
| 1788124144 | 37.78° C | 35% | 1013.8 hPa | 0 mm | - | 57 W/m² | - |
| 1788123843 | 38.33° C | 37% | 1013.8 hPa | 0 mm | - | 67 W/m² | - |
| 1788123541 | 37.78° C | 35% | 1014 hPa | 0 mm | - | 59 W/m² | - |
| 1788123240 | 37.22° C | 35% | 1014 hPa | 0 mm | - | 56 W/m² | - |
| 1788122936 | 37.22° C | 37% | 1013.9 hPa | 0 mm | - | 53 W/m² | - |
| 1788122634 | 37.22° C | 37% | 1014.1 hPa | 0 mm | - | 51 W/m² | - |
| 1788122330 | 37.22° C | 36% | 1014.1 hPa | 0 mm | - | 61 W/m² | - |
| 1788122027 | 37.78° C | 36% | 1014 hPa | 0 mm | - | 75 W/m² | - |
| 1788121726 | 37.78° C | 37% | 1014.4 hPa | 0 mm | - | 82 W/m² | - |
| 1788121422 | 36.67° C | 37% | 1014.5 hPa | 0 mm | - | 70 W/m² | - |
| 1788121117 | 36.67° C | 38% | 1014.3 hPa | 0 mm | - | 61 W/m² | - |
| 1788120816 | 37.22° C | 37% | 1014.6 hPa | 0 mm | - | 65 W/m² | - |
| 1788120511 | 37.78° C | 36% | 1014.6 hPa | 0 mm | - | 67 W/m² | - |
| 1788120211 | 37.78° C | 37% | 1014.6 hPa | 0 mm | - | 65 W/m² | - |
| 1788119907 | 37.22° C | 37% | 1014.6 hPa | 0 mm | - | 87 W/m² | - |
| 1788119606 | 37.78° C | 37% | 1014.7 hPa | 0 mm | - | 66 W/m² | - |
| 1788119305 | 37.22° C | 37% | 1014.8 hPa | 0 mm | - | 44 W/m² | - |
* Rain latest hour (hover to see other rain measurements)
** Current wind speed in m/s (hover to see current wind gust speed)